When you browse on this site, cookies collect data to enhance your experience and personalize the content and advertising you see.
Visit our Privacy Policy to learn more. By continuing to use the site, you agree to this use of cookies and data.
EN

Hourly Weather Khomas

Today, 10 July, Friday

Time Temperature Precipitation Wind Pressure Humidity
00:00 +7°C° 0 mm 4 mps 606 mmHg 34%
01:00 +7°C° 0 mm 5 mps 606 mmHg 34%
02:00 +7°C° 0 mm 5 mps 605 mmHg 35%
03:00 +7°C° 0 mm 5 mps 605 mmHg 36%
04:00 +6°C° 0 mm 5 mps 605 mmHg 37%
05:00 +6°C° 0 mm 5 mps 605 mmHg 38%
06:00 +5°C° 0 mm 5 mps 605 mmHg 40%
07:00 +5°C° 0 mm 5 mps 605 mmHg 41%
08:00 +8°C° 0 mm 7 mps 607 mmHg 33%
09:00 +11°C° 0 mm 10 mps 608 mmHg 26%
10:00 +14°C° 0 mm 12 mps 609 mmHg 18%
11:00 +15°C° 0 mm 13 mps 609 mmHg 17%
12:00 +15°C° 0 mm 13 mps 609 mmHg 16%
13:00 +17°C° 0 mm 14 mps 609 mmHg 15%
14:00 +15°C° 0 mm 14 mps 608 mmHg 17%
15:00 +13°C° 0 mm 13 mps 608 mmHg 20%
16:00 +12°C° 0 mm 13 mps 607 mmHg 23%
17:00 +8°C° 0 mm 11 mps 607 mmHg 31%
18:00 +6°C° 0 mm 9 mps 606 mmHg 39%
19:00 +3°C° 0 mm 7 mps 606 mmHg 47%
20:00 +2°C° 0 mm 7 mps 606 mmHg 59%
21:00 +1°C° 0 mm 6 mps 606 mmHg 72%
22:00 +1°C° 0 mm 6 mps 606 mmHg 85%
23:00 +1°C° 0 mm 5 mps 607 mmHg 86%

Tomorrow, 11 July, Saturday

Time Temperature Precipitation Wind Pressure Humidity
00:00 +1°C° 0 mm 5 mps 607 mmHg 88%
01:00 +1°C° 0 mm 4 mps 607 mmHg 89%
02:00 0°C° 0 mm 3 mps 606 mmHg 92%
03:00 -1°C° 0 mm 2 mps 606 mmHg 94%
04:00 -1°C° 0 mm 1 mps 605 mmHg 96%
05:00 -1°C° 0 mm 1 mps 606 mmHg 94%
06:00 -2°C° 0 mm 2 mps 606 mmHg 91%
07:00 -2°C° 0 mm 2 mps 607 mmHg 88%
08:00 +1°C° 0 mm 3 mps 608 mmHg 70%
09:00 +5°C° 0 mm 3 mps 610 mmHg 51%
10:00 +10°C° 0 mm 4 mps 612 mmHg 32%
11:00 +12°C° 0 mm 4 mps 612 mmHg 26%
12:00 +14°C° 0 mm 4 mps 612 mmHg 20%
13:00 +16°C° 0 mm 5 mps 612 mmHg 14%
14:00 +16°C° 0 mm 5 mps 612 mmHg 15%
15:00 +16°C° 0 mm 5 mps 611 mmHg 16%
16:00 +16°C° 0 mm 6 mps 611 mmHg 16%
17:00 +12°C° 0 mm 5 mps 610 mmHg 23%
18:00 +8°C° 0 mm 5 mps 609 mmHg 29%
19:00 +5°C° 0 mm 4 mps 608 mmHg 36%
20:00 +4°C° 0 mm 4 mps 608 mmHg 36%
21:00 +3°C° 0 mm 3 mps 608 mmHg 36%
22:00 +3°C° 0 mm 3 mps 608 mmHg 36%
23:00 +2°C° 0 mm 3 mps 608 mmHg 37%

Day after tomorrow, 12 July, Sunday

Time Temperature Precipitation Wind Pressure Humidity
00:00 +2°C° 0 mm 3 mps 608 mmHg 38%
01:00 +1°C° 0 mm 3 mps 608 mmHg 39%
02:00 +2°C° 0 mm 3 mps 608 mmHg 39%
03:00 +2°C° 0 mm 3 mps 608 mmHg 39%
04:00 +1°C° 0 mm 4 mps 608 mmHg 39%
05:00 +3°C° 0 mm 4 mps 609 mmHg 38%
06:00 +3°C° 0 mm 4 mps 609 mmHg 37%
07:00 +4°C° 0 mm 4 mps 610 mmHg 36%
08:00 +8°C° 0 mm 4 mps 611 mmHg 29%
09:00 +13°C° 0 mm 5 mps 612 mmHg 22%
10:00 +17°C° 0 mm 6 mps 614 mmHg 15%
11:00 +20°C° 0 mm 5 mps 613 mmHg 13%
12:00 +21°C° 0 mm 5 mps 613 mmHg 11%
13:00 +23°C° 0 mm 5 mps 613 mmHg 8%
14:00 +22°C° 0 mm 5 mps 612 mmHg 8%
15:00 +22°C° 0 mm 5 mps 612 mmHg 8%
16:00 +22°C° 0 mm 5 mps 612 mmHg 8%
17:00 +18°C° 0 mm 4 mps 610 mmHg 15%
18:00 +13°C° 0 mm 3 mps 609 mmHg 22%
19:00 +9°C° 0 mm 2 mps 607 mmHg 30%
20:00 +8°C° 0 mm 2 mps 607 mmHg 36%
21:00 +8°C° 0 mm 1 mps 607 mmHg 42%
22:00 +7°C° 0 mm 1 mps 607 mmHg 49%
23:00 +7°C° 0 mm 1 mps 607 mmHg 43%

13 July, Monday

Time Temperature Precipitation Wind Pressure Humidity
00:00 +7°C° 0 mm 2 mps 607 mmHg 36%
01:00 +7°C° 0 mm 3 mps 607 mmHg 30%
02:00 +7°C° 0 mm 3 mps 607 mmHg 30%
03:00 +7°C° 0 mm 3 mps 607 mmHg 30%
04:00 +7°C° 0 mm 3 mps 607 mmHg 30%
05:00 +6°C° 0 mm 2 mps 607 mmHg 31%
06:00 +6°C° 0 mm 2 mps 607 mmHg 31%
07:00 +6°C° 0 mm 2 mps 607 mmHg 32%
08:00 +10°C° 0 mm 3 mps 609 mmHg 26%
09:00 +14°C° 0 mm 3 mps 611 mmHg 21%
10:00 +20°C° 0 mm 4 mps 613 mmHg 15%
11:00 +21°C° 0 mm 5 mps 613 mmHg 12%
12:00 +22°C° 0 mm 5 mps 613 mmHg 10%
13:00 +23°C° 0 mm 6 mps 612 mmHg 8%
14:00 +23°C° 0 mm 6 mps 612 mmHg 7%
15:00 +22°C° 0 mm 6 mps 612 mmHg 7%
16:00 +22°C° 0 mm 6 mps 611 mmHg 7%
17:00 +17°C° 0 mm 5 mps 610 mmHg 11%
18:00 +13°C° 0 mm 4 mps 609 mmHg 15%
19:00 +9°C° 0 mm 3 mps 608 mmHg 20%
20:00 +8°C° 0 mm 2 mps 607 mmHg 29%
21:00 +7°C° 0 mm 1 mps 607 mmHg 38%
22:00 +6°C° 0 mm 1 mps 607 mmHg 47%
23:00 +6°C° 0 mm 1 mps 607 mmHg 45%

14 July, Tuesday

Time Temperature Precipitation Wind Pressure Humidity
00:00 +5°C° 0 mm 2 mps 607 mmHg 42%
01:00 +5°C° 0 mm 2 mps 607 mmHg 39%
02:00 +4°C° 0 mm 2 mps 607 mmHg 38%
03:00 +4°C° 0 mm 2 mps 607 mmHg 36%
04:00 +2°C° 0 mm 3 mps 606 mmHg 35%
05:00 +3°C° 0 mm 2 mps 607 mmHg 32%
06:00 +3°C° 0 mm 2 mps 607 mmHg 28%
07:00 +3°C° 0 mm 2 mps 608 mmHg 25%
08:00 +7°C° 0 mm 3 mps 610 mmHg 20%
09:00 +11°C° 0 mm 3 mps 612 mmHg 15%
10:00 +17°C° 0 mm 4 mps 614 mmHg 10%
11:00 +17°C° 0 mm 5 mps 614 mmHg 10%
12:00 +19°C° 0 mm 6 mps 613 mmHg 9%
13:00 +20°C° 0 mm 7 mps 613 mmHg 8%
14:00 +20°C° 0 mm 7 mps 613 mmHg 9%
15:00 +18°C° 0 mm 7 mps 613 mmHg 9%
16:00 +18°C° 0 mm 7 mps 612 mmHg 10%
17:00 +15°C° 0 mm 7 mps 612 mmHg 13%
18:00 +11°C° 0 mm 6 mps 611 mmHg 17%
19:00 +8°C° 0 mm 6 mps 610 mmHg 21%
20:00 +7°C° 0 mm 6 mps 610 mmHg 27%
21:00 +5°C° 0 mm 6 mps 611 mmHg 32%
22:00 +4°C° 0 mm 6 mps 611 mmHg 38%
23:00 +3°C° 0 mm 6 mps 610 mmHg 42%

15 July, Wednesday

Time Temperature Precipitation Wind Pressure Humidity
00:00 +2°C° 0 mm 5 mps 610 mmHg 46%
01:00 +1°C° 0 mm 5 mps 610 mmHg 50%
02:00 +1°C° 0 mm 5 mps 610 mmHg 51%
03:00 0°C° 0 mm 5 mps 610 mmHg 52%
04:00 0°C° 0 mm 5 mps 610 mmHg 52%
05:00 0°C° 0 mm 4 mps 610 mmHg 50%
06:00 0°C° 0 mm 4 mps 611 mmHg 48%
07:00 0°C° 0 mm 4 mps 611 mmHg 46%
08:00 +5°C° 0 mm 5 mps 613 mmHg 34%
09:00 +10°C° 0 mm 5 mps 615 mmHg 23%
10:00 +15°C° 0 mm 6 mps 616 mmHg 12%
11:00 +17°C° 0 mm 7 mps 616 mmHg 11%
12:00 +18°C° 0 mm 7 mps 616 mmHg 9%
13:00 +21°C° 0 mm 8 mps 616 mmHg 8%
14:00 +21°C° 0 mm 7 mps 615 mmHg 8%
15:00 +20°C° 0 mm 7 mps 615 mmHg 8%
16:00 +20°C° 0 mm 6 mps 615 mmHg 8%
17:00 +16°C° 0 mm 6 mps 614 mmHg 11%
18:00 +13°C° 0 mm 5 mps 613 mmHg 13%
19:00 +8°C° 0 mm 5 mps 612 mmHg 16%
20:00 +8°C° 0 mm 4 mps 612 mmHg 17%
21:00 +7°C° 0 mm 4 mps 613 mmHg 19%
22:00 +6°C° 0 mm 4 mps 613 mmHg 20%
23:00 +5°C° 0 mm 4 mps 612 mmHg 22%
Show more